TheGetRank SiteMap Page 1894
Home 1844 1845 1846 1847 1848 1849 1850 1851 1852 1853 1854 1855 1856 1857 1858 1859 1860 1861 1862 1863 1864 1865 1866 1867 1868 1869 1870 1871 1872 1873 1874 1875 1876 1877 1878 1879 1880 1881 1882 1883 1884 1885 1886 1887 1888 1889 1890 1891 1892 1893 1894 1895 1896 1897 1898 1899 1900 1901 1902 1903 1904 1905 1906 1907 1908 1909 1910 1911 1912 1913 1914 1915 1916 1917 1918 1919 1920 1921 1922 1923 1924 1925 1926 1927 1928 1929 1930 1931 1932 1933 1934 1935 1936 1937 1938 1939 1940 1941 1942 1943 1944
S.NO. Website Pagerank Alexa Rank Last Updated
1893000 vwew.de 5 968313 2011-08-18 00:04:24
1893001 wellingtoncollege.com 3 13165559 2011-08-18 00:04:25
1893002 music.now.datingguidesreviewed.com 0 1246948 2011-08-18 00:04:31
1893003 wellconnected.com 1 15017421 2011-08-18 00:04:31
1893004 justwater.ru 0 847253 2011-08-18 00:04:33
1893005 wellenkraftwerk.eu 0 No Rank 2011-08-18 00:04:34
1893006 sscc.ru 6 982939 2011-09-19 14:31:02
1893007 wellnet.at 3 No Rank 2011-08-18 00:04:53
1893008 wellnessskills.com 1 7721265 2011-08-18 00:04:56
1893009 wellness.ro 4 1282557 2011-08-18 00:04:58
1893010 cacarversguild.org 2 23859335 2011-08-18 00:05:01
1893011 wellness-web.co.jp 4 2803445 2011-08-18 00:05:01
1893012 welllane.com 3 No Rank 2011-08-18 00:05:04
1893013 rover75.webuda.com 0 40538 2011-08-18 00:05:04
1893014 wellmanage.com 5 680730 2011-08-18 00:05:06
1893015 wells-hk.com 1 No Rank 2011-08-18 00:05:09
1893016 wellness-board.de 1 No Rank 2011-08-18 00:05:17
1893017 cdbc.ru 3 11847414 2011-08-18 00:05:18
1893018 wells-chem.com 2 9520311 2011-08-18 00:05:20
1893019 wellness-thaimassage.de 2 5577308 2011-08-18 00:05:26
1893020 seiz.ch 3 15317695 2011-09-12 14:33:04
1893021 blog.internship-uk.com 4 42803 2011-08-18 00:05:29
1893022 wellscityarchers.org.uk 1 No Rank 2011-08-18 00:05:32
1893023 wellup.com 2 No Rank 2011-08-18 00:05:36
1893024 vpp.org 5 6060053 2011-08-18 00:05:38
1893025 fletcherjaco1231.edublogs.org 0 5258 2011-08-18 00:05:39
1893026 maps.mixzinet.com 0 6746501 2011-09-12 11:27:04
1893027 wellsfargofinanacial.com 0 24236710 2011-08-18 00:05:53
1893028 rovermakeovers.com 2 No Rank 2011-09-13 12:12:39
1893029 wellscti.com 4 7155699 2011-08-18 00:05:55
1893030 wellspringreiki.com 2 6271653 2011-08-18 00:05:57
1893031 vkro.nl 3 18217259 2011-09-11 03:41:58
1893032 wellsdargo.com 0 No Rank 2011-08-18 00:05:59
1893033 welsh.ws 0 No Rank 2011-08-18 00:06:13
1893034 welovecelebs.com 3 15097456 2011-09-09 22:32:10
1893035 welsa.com 0 13467768 2011-08-18 00:06:15
1893036 makemoneywithgoogleambush.com 0 No Rank 2011-08-18 00:06:17
1893037 welmech.com 1 12570021 2011-09-12 08:16:42
1893038 welt.com 0 5795464 2011-08-18 00:06:22
1893039 weltdeswebdesign.de 0 No Rank 2011-08-18 00:06:23
1893040 stainlesssteelcable.org 0 No Rank 2011-08-18 00:06:24
1893041 weltec.jp 0 No Rank 2011-08-18 00:06:25
1893042 nr4.net 0 No Rank 2011-08-18 00:06:25
1893043 welt-der-vitamine.de 5 No Rank 2011-08-18 00:06:32
1893044 wemsa.net 0 No Rank 2011-08-18 00:06:49
1893045 wencle.com 2 No Rank 2011-08-18 00:06:50
1893046 wemswbc.org 4 23283197 2011-08-18 00:06:52
1893047 wemweb.com 0 No Rank 2011-08-18 00:06:54
1893048 wema.com 4 2896261 2011-08-18 00:06:56
1893049 wendellcastle.com 0 No Rank 2011-09-19 16:21:04
1893050 wen.org.uk 6 3447598 2011-08-18 00:07:04
1893051 weltgips.pl 3 3183918 2011-08-18 00:07:08
1893052 23mh.com 0 No Rank 2011-08-18 00:07:10
1893053 wemix.de 0 26853658 2011-08-18 00:07:12
1893054 wembleytravels.com 0 21481049 2011-08-18 00:07:13
1893055 o0o9.com 1 920384 2011-08-18 00:07:14
1893056 weltmeisterschaft-fussball.com 4 18098823 2011-08-18 00:07:17
1893057 antiaging.blog.com 0 1073 2011-08-18 00:07:20
1893058 welshmountain.com 3 6014694 2011-08-18 00:07:25
1893059 wendywilliams.com 0 No Rank 2011-08-18 00:07:27
1893060 wendymckennon.com 0 No Rank 2011-08-18 00:07:29
1893061 wenrui.com 2 16523358 2011-08-18 00:07:38
1893062 wendushuicheng.web.mapbar.com 5 2850 2011-09-12 19:25:07
1893063 wendrave.co.cc 1 No Rank 2011-09-19 18:04:52
1893064 wenergy.com 0 5923073 2011-09-18 06:49:59
1893065 wendys.cz 3 632487 2011-08-18 00:07:48
1893066 volvo.it 6 37413 2011-08-18 00:08:03
1893067 wepindia.com 4 682181 2011-08-18 00:08:11
1893068 wengenying.tk 0 No Rank 2011-08-18 00:08:13
1893069 whowhere.now.datingguidesreviewed.com 0 1246948 2011-08-18 00:08:16
1893070 wenzel.de 3 4782908 2011-08-18 00:08:21
1893071 wepraisehim.org 0 20627489 2011-08-18 00:08:30
1893072 wens-inc.com 1 No Rank 2011-08-18 00:08:31
1893073 vweos.gr 3 611057 2011-08-18 00:08:32
1893074 wenxin.com 2 8524229 2011-09-19 11:03:10
1893075 wenwoodfarmwinery.com 3 10676846 2011-08-18 00:08:34
1893076 wepc.net 2 No Rank 2011-08-18 00:08:43
1893077 wep3.com 0 No Rank 2011-08-18 00:08:45
1893078 wepaymail.com 2 7561819 2011-08-18 00:08:51
1893079 weputoutrecords.com 3 No Rank 2011-08-18 00:08:52
1893080 voxtv.hr 3 5863976 2011-08-18 00:08:53
1893081 went-out.com 1 No Rank 2011-08-18 00:08:53
1893082 wenxiansy.org 3 No Rank 2011-08-18 00:08:53
1893083 werbe-center.anni-one.de 0 496166 2011-08-18 00:08:56
1893084 imperiumstore.com 0 No Rank 2011-08-18 00:08:57
1893085 wenxue123.com 1 No Rank 2011-08-18 00:09:01
1893086 wepan.org 7 5613100 2011-08-18 00:09:02
1893087 werkmanschoonmaakbedrijf.nl 0 No Rank 2011-08-18 00:09:03
1893088 wergfm.com 5 7356802 2011-08-18 00:09:04
1893089 wer.pl 3 2053404 2011-08-18 00:09:04
1893090 max.now.datingguidesreviewed.com 0 1246948 2011-08-18 00:09:05
1893091 wer-kennt-wenn.de 3 No Rank 2011-08-18 00:09:06
1893092 kraus.de 2 12022531 2011-08-18 00:09:07
1893093 women.mixzinet.com 0 6746501 2011-09-09 21:09:16
1893094 werbel.com 4 11689472 2011-08-18 00:09:15
1893095 wernkesteel.com 0 No Rank 2011-08-18 00:09:20
1893096 wernerenterprises.com 0 3695083 2011-08-18 00:09:24
1893097 vsers.cz 6 5045324 2011-08-18 00:09:25
1893098 weroy.org 5 1832766 2011-08-18 00:09:27
1893099 vroom.it 4 1095761 2011-08-18 00:09:28
1893100 werner.mu 0 No Rank 2011-08-18 00:09:28
1893101 wernergrp.com 1 No Rank 2011-09-12 18:08:11
1893102 werundc.com 2 No Rank 2011-08-18 00:09:37
1893103 tcair.ru 0 12273066 2011-08-18 00:09:40
1893104 vpip.org 5 1035045 2011-08-18 00:09:42
1893105 wesburgs.com 1 6738365 2011-08-18 00:09:49
1893106 werteks.com 0 12987442 2011-08-18 00:09:53
1893107 wesdec.com 0 No Rank 2011-08-18 00:09:56
1893108 werrason.eu 0 No Rank 2011-08-18 00:09:59
1893109 wesellc.com 0 No Rank 2011-08-18 00:10:03
1893110 weservehomes.com 5 233079 2011-08-18 00:10:04
1893111 weser-web.de 3 No Rank 2011-08-18 00:10:07
1893112 weslancable.com 1 No Rank 2011-08-18 00:10:11
1893113 vsba.org 5 11979042 2011-08-18 00:10:15
1893114 wesohorny.com 0 20358408 2011-08-18 00:10:27
1893115 cely.com 3 9899857 2011-08-18 00:10:34
1893116 wesscoproducts.com 2 16310302 2011-08-18 00:10:34
1893117 dutly.ch 3 4665269 2011-08-18 00:10:35
1893118 vvv7.net 2 9384193 2011-08-18 00:10:43
1893119 west-ave.com 3 No Rank 2011-08-18 00:10:47
1893120 west-east.net 0 13039112 2011-08-18 00:10:50
1893121 smstxt4u.com 0 No Rank 2011-08-18 00:11:02
1893122 sourcesofprotein.wikispaces.com 0 1975 2011-08-18 00:11:04
1893123 westacres.com 4 4776390 2011-08-18 00:11:08
1893124 westa.co.jp 2 No Rank 2011-08-18 00:11:16
1893125 treli.ru 4 2492059 2011-08-18 00:11:17
1893126 westbeachmarina.com 3 14048769 2011-08-18 00:11:18
1893127 westarnet.com 2 No Rank 2011-08-18 00:11:19
1893128 3mh.info 0 7008947 2011-08-18 00:11:22
1893129 vloer.nl 3 3451259 2011-08-18 00:11:28
1893130 west260.com 1 9730289 2011-09-11 00:06:09
1893131 vsau.org 3 7387197 2011-08-18 00:11:33
1893132 westborough.org 4 7426490 2011-08-18 00:11:35
1893133 supplementjudge.net 0 No Rank 2011-08-18 00:11:38
1893134 sottt.com 0 No Rank 2011-08-18 00:11:38
1893135 store1.alinapsharp.sosblogs.com 0 16964 2011-08-18 00:11:51
1893136 westchestercommunitynetwork.com 3 No Rank 2011-08-18 00:11:52
1893137 westcarolina.com 2 No Rank 2011-09-10 01:15:04
1893138 zodan.nl 4 9491663 2011-08-18 00:11:57
1893139 vogon.us 3 No Rank 2011-08-18 00:12:00
1893140 vnjob.vn 3 6191359 2011-08-18 00:12:06
1893141 vpqv.net 2 351752 2011-08-18 00:12:08
1893142 westcoastautosport.com 3 7528239 2011-08-18 00:12:11
1893143 westcoastcustom.com 0 No Rank 2011-08-18 00:12:15
1893144 westcoastdrumcenter.com 0 No Rank 2011-08-18 00:12:25
1893145 westdata.net 0 No Rank 2011-09-14 13:22:02
1893146 westcrete.gr 0 2709187 2011-08-18 00:12:36
1893147 tennisclub.nystatefair.info 0 No Rank 2011-08-18 00:12:37
1893148 westcountryviolins.com 4 4500325 2011-08-18 00:12:37
1893149 arb3.com 5 2804002 2011-08-18 00:12:38
1893150 westcoastsupply.com 1 23772585 2011-08-18 00:12:40
1893151 westcoastseaglass.net 3 No Rank 2011-08-18 00:12:40
1893152 westcomlines.info 0 No Rank 2011-08-18 00:12:41
1893153 hp1050printer.theblogseller.cz.cc 0 753 2011-08-18 00:12:49
1893154 9o9i.com 3 184264 2011-08-18 00:12:53
1893155 voxtv.ca 6 1401084 2011-09-19 16:45:28
1893156 blog.hp1050printer.theblogseller.cz.cc 0 753 2011-08-18 00:12:59
1893157 commission-central.hp1050printer.theblogseller.cz.cc 0 753 2011-08-18 00:13:12
1893158 western-mag.com 0 No Rank 2011-09-19 17:38:06
1893159 waru.org 5 16452714 2011-08-18 00:13:26
1893160 homepager.tripod.hp1050printer.theblogseller.cz.cc 0 753 2011-08-18 00:13:28
1893161 ar-st.ru 2 3214450 2011-08-18 00:13:30
1893162 ankos.de 1 No Rank 2011-08-18 00:13:31
1893163 westerncomputer.com 4 2890815 2011-09-12 17:43:26
1893164 western.union.com 2 2944055 2011-08-18 00:13:33
1893165 max.hp1050printer.theblogseller.cz.cc 0 753 2011-08-18 00:13:37
1893166 westernag.com 5 21588851 2011-08-18 00:13:38
1893167 westernfire.com 4 24129586 2011-08-18 00:13:44
1893168 music.hp1050printer.theblogseller.cz.cc 0 753 2011-08-18 00:13:47
1893169 westernerinc.com 0 No Rank 2011-08-18 00:13:49
1893170 westernairlines.com 0 No Rank 2011-09-10 22:55:38
1893171 westerncanon.com 5 1414382 2011-08-18 00:13:53
1893172 whowhere.hp1050printer.theblogseller.cz.cc 0 753 2011-08-18 00:13:55
1893173 sammo.be 3 7572896 2011-08-18 00:13:56
1893174 westernindian.org 3 19589545 2011-08-18 00:13:58
1893175 westerninfo.de 3 685860 2011-08-18 00:14:03
1893176 vrvm.com 0 651821 2011-08-18 00:14:19
1893177 store1.hp1050printer.theblogseller.cz.cc 0 753 2011-08-18 00:14:20
1893178 westernridning.dk 2 5819438 2011-08-18 00:14:28
1893179 xstar.ru 3 1831690 2011-08-18 00:14:29
1893180 westernrv.com 2 4991868 2011-08-18 00:14:32
1893181 westernreiter.com 3 1063025 2011-08-18 00:14:32
1893182 westernrvnews.com 2 No Rank 2011-08-18 00:14:38
1893183 westernsource.com 1 No Rank 2011-08-18 00:14:39
1893184 wrfu.org 4 13878572 2011-08-18 00:14:42
1893185 vehicle-donations.com 1 6657932 2011-08-18 00:14:49
1893186 westernwoodstructures.com 3 5584179 2011-08-18 00:14:52
1893187 westernwatersheds.org 5 3412556 2011-08-18 00:14:57
1893188 westernthoracic.org 5 No Rank 2011-08-18 00:14:59
1893189 ddex.com 5 No Rank 2011-09-11 23:52:18
1893190 westeuropeansingledating.sbn.bz 0 3211813 2011-08-18 00:15:12
1893191 westexpress.lt 5 1312931 2011-08-18 00:15:15
1893192 westfalia.ru 4 2073085 2011-08-18 00:15:21
1893193 westfaelische-nachrichten.de 5 34631 2011-08-18 00:15:23
1893194 westfr.de 2 1569871 2011-08-18 00:15:28
1893195 westhampoland.com 3 4983993 2011-08-18 00:15:42
1893196 westgogo.com 2 No Rank 2011-08-18 00:15:55
1893197 westkans.be 5 3859762 2011-08-18 00:15:57
1893198 westhoughtonlions.co.uk 0 No Rank 2011-08-18 00:16:06
1893199 westies.com 2 No Rank 2011-08-18 00:16:11
1893200 westinbuss.se 4 5949379 2011-08-18 00:16:12
1893201 westgatepix.com 0 No Rank 2011-09-18 07:27:28
1893202 westinmichiganave.com 5 No Rank 2011-08-18 00:16:22
1893203 westlightsthenovel.co.uk 0 No Rank 2011-08-18 00:16:23
1893204 westlakefood.com 0 15700365 2011-09-12 11:22:49
1893205 westlifeorg.topcities.com 0 93368 2011-08-18 00:16:32
1893206 aearc.com 0 24133339 2011-08-18 00:16:40
1893207 westlib.org 6 3127096 2011-08-18 00:16:42
1893208 women.dataopedia.com 0 76072 2011-08-18 00:16:49
1893209 westmontlibrary.org 4 4878927 2011-08-18 00:16:49
1893210 mychildspiratecostume.com 0 No Rank 2011-08-18 00:16:50
1893211 westmipower.com 2 23457539 2011-08-18 00:17:02
1893212 westminster.net 5 1663263 2011-08-18 00:17:07
1893213 westmarine.co.jp 4 6164356 2011-08-18 00:17:13
1893214 abgks.com 0 No Rank 2011-08-18 00:17:18
1893215 l2pan.com 0 7124078 2011-08-18 00:17:22
1893216 westnew.com 3 No Rank 2011-08-18 00:17:23
1893217 westnc.com 4 2807260 2011-08-18 00:17:26
1893218 l7dhh.com 0 2020213 2011-08-18 00:17:42
1893219 dragonfireworks.nystatefair.info 0 No Rank 2011-08-18 00:17:53
1893220 baito.nystatefair.info 0 No Rank 2011-08-18 00:18:10
1893221 lab812.ru 1 1458224 2011-08-18 00:19:42
1893222 suruga.com 3 1127409 2011-08-18 00:20:27
1893223 anc3e.org 3 No Rank 2011-08-18 00:20:48
1893224 group.nystatefair.info 0 No Rank 2011-08-18 00:21:04
1893225 3asol.com 2 88778 2011-08-18 00:21:12
1893226 1365car.enews.nystatefair.info 0 No Rank 2011-08-18 00:21:26
1893227 indexed.facebookloot.rickywattsonline.com 0 1622536 2011-08-18 00:21:27
1893228 psp.bialystok.pl 1 No Rank 2011-08-18 00:21:31
1893229 antoineweber1126.jaiku.com 0 9260 2011-08-18 00:21:39
1893230 marketingtips.freehostia.com 0 7251 2011-08-18 00:21:49
1893231 grbromwa75.imagekind.com 0 17010 2011-08-18 00:22:12
1893232 hostgatorreview047.tumblr.com 0 No Rank 2011-08-18 00:22:12
1893233 yapings.com 0 10072727 2011-08-18 00:23:29
1893234 hddmediaplayer.co 0 No Rank 2011-08-18 00:23:38
1893235 officiatingawedding.com 0 No Rank 2011-08-18 00:23:40
1893236 maps.dataopedia.com 0 76072 2011-08-18 00:23:40
1893237 dominamos.com 0 8356915 2011-08-18 00:23:46
1893238 flip-hd.blogspot.com 0 No Rank 2011-08-18 00:23:46
1893239 max.facebookloot.rickywattsonline.com 0 1622536 2011-08-18 00:23:56
1893240 leadhealtheffects.com 0 No Rank 2011-08-18 00:24:12
1893241 musclesbuildingexercises.com 0 No Rank 2011-08-18 00:24:13
1893242 repairdrywallholes.com 0 No Rank 2011-08-18 00:24:21
1893243 nikonactions.blogspot.com 0 No Rank 2011-08-18 00:24:28
1893244 televisionsony.info 1 No Rank 2011-08-18 00:25:36
1893245 aspen-search-group.com 0 12226240 2011-08-18 00:26:03
1893246 commission-central.facebookloot.rickywattsonline.com 0 1622536 2011-08-18 00:26:45
1893247 l2.cl 2 235828 2011-08-18 00:27:03
1893248 bestorganicgardensite.com 0 No Rank 2011-08-18 00:27:21
1893249 mrvc.dataopedia.com 0 76072 2011-08-18 00:28:23
1893250 bestwirelesscablemodem.com 0 No Rank 2011-08-18 00:28:49
1893251 actor.facebookloot.rickywattsonline.com 0 1622536 2011-08-18 00:28:50
1893252 krupscaffe.commissionmagnets.com 0 21636 2011-08-18 00:28:58
1893253 chcastings.co.uk 1 No Rank 2011-08-18 00:29:24
1893254 antoineweber1126045.webs.com 0 No Rank 2011-08-18 00:29:46
1893255 wcd.su 2 807215 2011-08-18 00:29:58
1893256 antoineweber112.livejournal.com 0 79 2011-08-18 00:30:00
1893257 diet-plan-now.com 0 399277 2011-08-18 00:30:12
1893258 cowonc2.com 0 No Rank 2011-08-18 00:30:39
1893259 max.nystatefair.info 0 No Rank 2011-08-18 00:31:06
1893260 suyoupeng.com 4 14845737 2011-08-18 00:31:22
1893261 coachinglifesuccess.com 0 No Rank 2011-09-13 01:20:18
1893262 dvr.de 6 759200 2011-08-18 00:31:36
1893263 boardingschoolsus.com 0 No Rank 2011-08-18 00:31:41
1893264 lower-mytaxes.com 0 15566717 2011-08-18 00:31:45
1893265 books.directorio-gratis.blogspot.com.pk 0 12544431 2011-09-12 13:21:46
1893266 wcn.it 2 7625472 2011-09-12 16:27:13
1893267 indexed.nystatefair.info 0 No Rank 2011-08-18 00:32:35
1893268 mox.de 4 2578320 2011-08-18 00:33:02
1893269 anlibbs.com 4 987302 2011-08-18 00:33:39
1893270 wbgu.de 7 2163111 2011-08-18 00:33:47
1893271 explorebresser.com 5 No Rank 2011-08-18 00:34:07
1893272 commission-central.nystatefair.info 0 No Rank 2011-08-18 00:35:30
1893273 highbloodpressuremonitors.net 0 8210523 2011-08-18 00:36:30
1893274 actor.nystatefair.info 0 No Rank 2011-08-18 00:36:54
1893275 bytestyle.tv 4 46215 2011-08-18 00:37:33
1893276 rs-digital-products.eu 0 No Rank 2011-08-18 00:37:48
1893277 secretosdeluz51.wordpress.com 0 No Rank 2011-08-18 00:38:01
1893278 christmaselfcostumesonline.net 0 No Rank 2011-08-18 00:38:04
1893279 plwindowsanddoors.com 0 No Rank 2011-08-18 00:38:06
1893280 danebernard7181.xanga.com 0 2732 2011-08-18 00:38:21
1893281 secretos-de-luz98.blogspot.com 0 No Rank 2011-08-18 00:38:33
1893282 danebernard7181.livejournal.com 0 79 2011-08-18 00:38:45
1893283 danebernard7181.insanejournal.com 0 5088 2011-08-18 00:39:01
1893284 valtertennis.com 2 10179062 2011-08-18 00:39:01
1893285 danebernard71812961.webs.com 0 No Rank 2011-08-18 00:39:25
1893286 danebernard71812.wikidot.com 0 3327 2011-08-18 00:40:15
1893287 secretos-de-luz00.onsugar.com 0 2138 2011-08-18 00:40:34
1893288 bestbackgroundchecks.webs.com 0 No Rank 2011-08-18 00:40:57
1893289 0001site.cn 1 16793130 2011-08-18 00:41:01
1893290 danebernard7181.blog.com 0 1073 2011-08-18 00:41:08
1893291 mrvc.noticiasinsolitas.info 0 No Rank 2011-08-18 00:41:25
1893292 women.noticiasinsolitas.info 0 No Rank 2011-08-18 00:41:32
1893293 secretosdeluz89.wordpress.com 0 No Rank 2011-08-18 00:41:39
1893294 directorio-gratis.blogspot.com 0 3697321 2011-08-18 00:42:38
1893295 mrvc.hfengineers.com 0 No Rank 2011-08-18 00:42:50
1893296 women.hfengineers.com 0 No Rank 2011-08-18 00:43:08
1893297 blog.nystatefair.info 0 No Rank 2011-08-18 00:43:16
1893298 blog.facebookloot.rickywattsonline.com 0 1622536 2011-08-18 00:44:14
1893299 secretos-de-luz89.wetpaint.com 0 2664 2011-08-18 00:44:18
1893300 hughjackmanworkout.info 0 No Rank 2011-08-18 00:44:21
1893301 lacanadaflintridgegaragedoorrepair.com 0 No Rank 2011-08-18 00:45:40
1893302 maps.noticiasinsolitas.info 0 No Rank 2011-08-18 00:45:56
1893303 mslheatingandplumbing.com 0 No Rank 2011-08-18 00:45:58
1893304 maps.hfengineers.com 0 No Rank 2011-08-18 00:46:15
1893305 lamiradagaragedoorrepair.com 0 No Rank 2011-08-18 00:46:28
1893306 secretos-de-luz00.wetpaint.com 0 2664 2011-08-18 00:47:00
1893307 etqinvertergenerator.info 0 No Rank 2011-08-18 00:47:54
1893308 todotrial.mforos.com 2 2658 2011-08-18 00:48:00
1893309 192worldcup.com 1 4283378 2011-08-18 00:48:25
1893310 mjchabot.com 1 23037659 2011-08-18 00:48:36
1893311 elelegido.telefe.com 5 45867 2011-08-18 00:49:25
1893312 blog.latism.org 3 342615 2011-08-18 00:49:34
1893313 millerserve.com 2 14288319 2011-08-18 00:49:58
1893314 tv-oglasi.com 4 No Rank 2011-08-18 00:50:24
1893315 ostanovinasilie.org 5 No Rank 2011-08-18 00:50:37
1893316 wsjr.nystatefair.info 0 No Rank 2011-08-18 00:50:45
1893317 danebernard71812.imagekind.com 0 17010 2011-08-18 00:50:49
1893318 skwhat.hr 4 22663768 2011-08-18 00:50:51
1893319 maps.lawrenceluhopkins.over-blog.com 0 367 2011-08-18 00:51:05
1893320 contactus.nystatefair.info 0 No Rank 2011-08-18 00:51:10
1893321 succursale.org 4 7739772 2011-08-18 00:51:13
1893322 pieknidwudziestoletni.pl 4 5331889 2011-08-18 00:51:25
1893323 jokermedia.net 4 4534975 2011-08-18 00:51:37
1893324 revistaflacara.ro 5 1554197 2011-08-18 00:51:57
1893325 scene.yahoo.net 4 4 2011-08-18 00:52:11
1893326 ha-ash.com 4 1120151 2011-08-18 00:52:42
1893327 stonedowl.com 3 1001768 2011-08-18 00:52:56
1893328 lapuentegaragedoorrepair.com 0 No Rank 2011-08-18 00:53:20
1893329 colunas.casaejardim.globo.com 1 106 2011-08-18 00:53:21
1893330 libive.cz 1 5341299 2011-08-18 00:53:37
1893331 u.hfengineers.com 0 No Rank 2011-08-18 00:53:42
1893332 elementlighters.com 0 8548709 2011-08-18 00:53:49
1893333 hazelbrandon.blog.com 0 1073 2011-08-18 00:53:52
1893334 370.diena.lt 4 27711 2011-08-18 00:53:52
1893335 weare2012.ru 2 6883372 2011-08-18 00:54:12
1893336 store1.susanlpearson.over-blog.com 0 367 2011-08-18 00:54:20
1893337 weather.nystatefair.info 0 No Rank 2011-08-18 00:54:23
1893338 u.noticiasinsolitas.info 0 No Rank 2011-08-18 00:54:29
1893339 vinilofm.prositel.es 2 4493491 2011-08-18 00:54:35
1893340 donorg.ru.pe 0 No Rank 2011-08-18 00:54:38
1893341 ungrado.com 3 6234517 2011-09-12 16:48:42
1893342 bbermarket.com 0 3207510 2011-08-18 00:54:54
1893343 igraj-igru.com 3 2884929 2011-08-18 00:55:12
1893344 babycareguideline.com 0 27599548 2011-08-18 00:55:15
1893345 dir.nystatefair.info 0 No Rank 2011-08-18 00:55:24
1893346 knorr.es 3 1080597 2011-08-18 00:55:26
1893347 childrentoyfoundation.org 3 8182476 2011-08-18 00:55:42
1893348 theflyunion.com 1 981120 2011-08-18 00:56:02
1893349 malibugaragedoorrepair.com 0 19113712 2011-08-18 00:56:25
1893350 blog.bigiqkids.com 3 302522 2011-08-18 00:56:48
1893351 school-hacks.com 3 11381746 2011-08-18 00:57:19
1893352 ultimate-bmw.com 1 793175 2011-08-18 00:57:29
1893353 kuhnishkaf.ru 2 620767 2011-09-17 17:54:18
1893354 britcaymen.com 0 No Rank 2011-08-18 00:57:34
1893355 treville.nystatefair.info 0 No Rank 2011-08-18 00:58:04
1893356 freedemostocktrade.com 0 No Rank 2011-08-18 00:58:24
1893357 getonecar.com 3 715578 2011-08-18 00:58:31
1893358 marygroves.com.au 4 No Rank 2011-08-18 00:59:02
1893359 pages.nystatefair.info 0 No Rank 2011-08-18 00:59:16
1893360 max.susanlpearson.over-blog.com 0 367 2011-08-18 00:59:16
1893361 blog.institutoinovacao.com.br 4 2558275 2011-08-18 00:59:31
1893362 shain.nystatefair.info 0 No Rank 2011-08-18 00:59:33
1893363 prakashrao.com 0 29871174 2011-09-12 14:30:14
1893364 need-a-voice.com 0 No Rank 2011-08-18 00:59:49
1893365 xn----7sbcdncdwdrsn6b5a.xn--p1ai 0 No Rank 2011-08-18 00:59:51
1893366 comitet-22-03-10.ru 3 7829120 2011-08-18 01:00:10
1893367 arcangelblog.com 3 1703333 2011-08-18 01:00:35
1893368 ubuntuknow.dip.jp 0 6894 2011-08-18 01:00:47
1893369 venicetheseries.com 5 594945 2011-08-18 01:00:54
1893370 dineroseguro.anuntiomatic.es 0 199198 2011-08-18 01:01:06
1893371 en.xmyg.cn 0 6122318 2011-08-18 01:01:17
1893372 maps.wiki-answers.eu 0 No Rank 2011-08-18 01:01:20
1893373 wiki-answers.eu 1 No Rank 2011-08-18 01:01:20
1893374 wow.wiki-answers.eu 0 No Rank 2011-08-18 01:01:20
1893375 blog.menasverslui.lt 4 22383050 2011-08-18 01:01:22
1893376 lagoonnetwork.com 3 7700309 2011-08-18 01:01:38
1893377 whowhere.nystatefair.info 0 No Rank 2011-08-18 01:01:49
1893378 mb.nystatefair.info 0 No Rank 2011-08-18 01:02:06
1893379 takarakuji.nystatefair.info 0 No Rank 2011-08-18 01:02:18
1893380 magicnichefinder.net 0 No Rank 2011-08-18 01:02:34
1893381 timpul.biz 2 899325 2011-08-18 01:02:47
1893382 santooficio.pe 1 10417702 2011-08-18 01:02:53
1893383 usaha-umkm.blog.com 0 1073 2011-08-18 01:03:04
1893384 chiledoc.cl 4 17930167 2011-08-18 01:03:37
1893385 buckdaddyblog.com 3 3496045 2011-08-18 01:04:31
1893386 updatersarea3.com 3 5683408 2011-08-18 01:04:42
1893387 normallove.com 3 11418028 2011-08-18 01:04:44
1893388 ya-zdorova.ru 4 488733 2011-08-18 01:04:59
1893389 dathana.byethost3.com 2 68371 2011-09-13 19:23:01
1893390 penetratewng.com 0 No Rank 2011-08-18 01:05:35
1893391 pets.rouranca.com 0 No Rank 2011-08-18 01:05:35
1893392 eurekabank.jp 3 401219 2011-08-18 01:05:53
1893393 leehawkinsforcongress.com 3 16570450 2011-08-18 01:06:16
1893394 elmulonario.lamula.pe 3 24716 2011-08-18 01:06:26
1893395 steamflash.com 3 659513 2011-08-18 01:06:42
1893396 home.hfengineers.com 0 No Rank 2011-08-18 01:07:02
1893397 dana-dream.jp 2 14238273 2011-08-18 01:07:23
1893398 www2.hfengineers.com 0 No Rank 2011-08-18 01:07:30
1893399 terezaneuma.com 1 2411318 2011-08-18 01:07:46
1893400 cltprint.com 0 No Rank 2011-08-18 01:08:02
1893401 demarcelaparaana.com 3 2198873 2011-08-18 01:08:04
1893402 ratiehchandra.com 0 No Rank 2011-08-18 01:08:07
1893403 889yonge.com 4 1878236 2011-08-18 01:08:18
1893404 wsjr.facebookloot.rickywattsonline.com 0 1622536 2011-08-18 01:08:43
1893405 portableair-conditioner.org 0 25209697 2011-08-18 01:08:45
1893406 persian.blog.com 3 1073 2011-08-18 01:09:01
1893407 differentscene.co.uk 2 1565819 2011-08-18 01:09:15
1893408 babe-girls.com 0 8720931 2011-08-18 01:09:16
1893409 speedandroid.com 1 1299085 2011-08-18 01:09:23
1893410 evanwesterlund.com 2 27523899 2011-08-18 01:09:28
1893411 h-o-s-s.com 1 5166572 2011-08-18 01:09:38
1893412 contactus.facebookloot.rickywattsonline.com 0 1622536 2011-08-18 01:09:38
1893413 tominaga-message.com 3 4000171 2011-08-18 01:09:50
1893414 lacovblog.goodstyle.sk 0 2445503 2011-08-18 01:10:19
1893415 levelupyourgame.com 1 2630982 2011-08-18 01:10:38
1893416 spb.nystatefair.info 0 No Rank 2011-08-18 01:10:38
1893417 collectiveprogression.org 1 15680055 2011-08-18 01:11:05
1893418 tuffchin.com 3 204889 2011-08-18 01:11:14
1893419 hotmobiledeals.in 2 1005069 2011-08-18 01:11:29
1893420 eye-2-eye.net 2 7649368 2011-08-18 01:11:31
1893421 home.noticiasinsolitas.info 0 No Rank 2011-08-18 01:11:32
1893422 www2.noticiasinsolitas.info 0 No Rank 2011-08-18 01:12:06
1893423 lesgasconsducreuxdelaprat.fr 2 29868129 2011-08-18 01:12:14
1893424 conseilsmarketing.fr 5 27291 2011-08-18 01:12:37
1893425 mygiveawaytoday.com 3 941149 2011-08-18 01:12:47
1893426 fayandeleni.com 3 2546188 2011-08-18 01:12:54
1893427 flooringtherapy.com 2 9637210 2011-08-18 01:13:08
1893428 lilyfan.net 3 805266 2011-08-18 01:13:24
1893429 renewmed-spa.com 2 6344767 2011-08-18 01:13:36
1893430 mardahbeatz.com 2 2585540 2011-08-18 01:13:41
1893431 najlepsze.katalogistron.info 0 No Rank 2011-08-18 01:13:45
1893432 pampersbabyclub.tk 0 No Rank 2011-08-18 01:13:54
1893433 julianclarkfilms.com 2 5471481 2011-08-18 01:13:58
1893434 galatiul.com 0 4113732 2011-08-18 01:14:20
1893435 alesana.net 2 2514651 2011-09-12 16:14:18
1893436 daylong.name 2 7004569 2011-08-18 01:15:00
1893437 coloca.com.br 2 1134092 2011-08-18 01:15:13
1893438 zhidao.gezhong.net 3 1194646 2011-08-18 01:15:26
1893439 quintadosmelros.org 3 No Rank 2011-08-18 01:15:48
1893440 idealpix.fr 2 5080802 2011-08-18 01:15:52
1893441 dombay.ru 3 No Rank 2011-08-18 01:16:28
1893442 weatherwatercooler.kcrg.com 1 44287 2011-08-18 01:16:48
1893443 craftypour.com 2 8908456 2011-08-18 01:17:07
1893444 slndoors.com 0 3898092 2011-08-18 01:17:17
1893445 maps.abigailypsharp.sweetcircles.com 0 27480 2011-08-18 01:17:18
1893446 manhattanbeachgaragedoorrepair.com 0 No Rank 2011-08-18 01:17:20
1893447 u.dataopedia.com 0 76072 2011-08-18 01:17:33
1893448 granite-counter-tops.com 0 No Rank 2011-08-18 01:17:37
1893449 epitomeofchic.com 1 2921161 2011-08-18 01:17:46
1893450 weather.facebookloot.rickywattsonline.com 0 1622536 2011-08-18 01:17:49
1893451 igobyjenn.com 2 No Rank 2011-08-18 01:18:12
1893452 bigmanbo.com 2 6319467 2011-08-18 01:18:28
1893453 monroviagaragedoorrepair.com 0 No Rank 2011-08-18 01:18:37
1893454 delonghicaffe.commissionmagnets.com 0 21636 2011-08-18 01:18:41
1893455 halfvolley.co.uk 2 11463697 2011-08-18 01:18:45
1893456 poikola.fi 2 15636592 2011-08-18 01:19:13
1893457 lagomarbeachlife.com 3 10297109 2011-08-18 01:19:50
1893458 store1.abigailypsharp.sweetcircles.com 0 27480 2011-08-18 01:20:00
1893459 zaronline.co.za 3 644389 2011-08-18 01:20:04
1893460 dir.facebookloot.rickywattsonline.com 0 1622536 2011-08-18 01:20:19
1893461 pisapiafacts.it 3 835052 2011-08-18 01:20:55
1893462 oldduckracing.com 3 No Rank 2011-08-18 01:21:04
1893463 coolcrazyonlineoffer.co.cc 0 No Rank 2011-08-18 01:21:09
1893464 healthy-info.info 0 No Rank 2011-08-18 01:21:10
1893465 epsonartisan810wirelesscolorinkjetall-in-oneprinter.theblogseller.cz.cc 0 753 2011-08-18 01:21:19
1893466 hfengineers.com 0 No Rank 2011-08-18 01:21:21
1893467 xn--9dbdhqlc5d.com 2 29196955 2011-08-18 01:21:27
1893468 transformonline.com 0 19004282 2011-08-18 01:21:31
1893469 blog.epsonartisan810wirelesscolorinkjetall-in-oneprinter.theblogseller.cz.cc 0 753 2011-08-18 01:21:35
1893470 urbanosacramento.com 2 No Rank 2011-08-18 01:21:37
1893471 tetracash.com 0 6252948 2011-08-18 01:21:47
1893472 commission-central.epsonartisan810wirelesscolorinkjetall-in-oneprinter.theblogseller.cz.cc 0 No Rank 2011-08-18 01:21:52
1893473 luifercuello.com.co 2 1074696 2011-08-18 01:22:00
1893474 forums.nystatefair.info 0 No Rank 2011-08-18 01:22:07
1893475 homepager.tripod.epsonartisan810wirelesscolorinkjetall-in-oneprinter.theblogseller.cz.cc 0 No Rank 2011-08-18 01:22:12
1893476 max.epsonartisan810wirelesscolorinkjetall-in-oneprinter.theblogseller.cz.cc 0 753 2011-08-18 01:22:25
1893477 montebellogaragedoorrepair.com 0 No Rank 2011-08-18 01:22:36
1893478 gsmtest.be 2 9421590 2011-08-18 01:22:36
1893479 music.epsonartisan810wirelesscolorinkjetall-in-oneprinter.theblogseller.cz.cc 0 753 2011-08-18 01:22:39
1893480 whowhere.epsonartisan810wirelesscolorinkjetall-in-oneprinter.theblogseller.cz.cc 0 753 2011-08-18 01:22:50
1893481 andresreynol1114.jaiku.com 0 9260 2011-08-18 01:23:03
1893482 store1.epsonartisan810wirelesscolorinkjetall-in-oneprinter.theblogseller.cz.cc 0 753 2011-08-18 01:23:11
1893483 carpaltunnelsyndrome.amazonstors.com 0 1615555 2011-08-18 01:23:14
1893484 montereyparkgaragedoorrepair.com 0 No Rank 2011-08-18 01:23:22
1893485 whowhere.abigailypsharp.sweetcircles.com 0 27480 2011-08-18 01:24:22
1893486 bmwrepairbellevue.com 0 No Rank 2011-08-18 01:24:48
1893487 max.abigailypsharp.sweetcircles.com 0 27480 2011-08-18 01:24:56
1893488 panskeho.xxx-party.cz 0 No Rank 2011-08-18 01:26:48
1893489 remortgage-advice-25.tumblr.com 0 No Rank 2011-08-18 01:26:49
1893490 addvideo2yoursite.com 2 10352635 2011-08-18 01:26:54
1893491 treville.facebookloot.rickywattsonline.com 0 1622536 2011-08-18 01:26:58
1893492 andresreynol111.livejournal.com 0 79 2011-08-18 01:27:02
1893493 andresreynol1114131.webs.com 0 No Rank 2011-08-18 01:27:38
1893494 pages.facebookloot.rickywattsonline.com 0 1622536 2011-08-18 01:28:05
1893495 andresreynol111.xanga.com 0 2732 2011-08-18 01:28:14
1893496 keyboardlessononline.com 0 9080538 2011-08-18 01:28:20
1893497 shain.facebookloot.rickywattsonline.com 0 1622536 2011-08-18 01:28:21
1893498 fengshui2011.org 1 2974691 2011-08-18 01:28:22
1893499 andresreynol111.insanejournal.com 0 5088 2011-08-18 01:28:43
1893500 northhillsgaragedoorrepair.com 0 No Rank 2011-08-18 01:29:19
1893501 howtomakemoneyfromadsense.net 0 No Rank 2011-08-18 01:30:50
1893502 remortgageadvice25.wordpress.com 0 No Rank 2011-08-18 01:31:02
1893503 roushsrestaurant.com 1 No Rank 2011-08-18 01:31:13
1893504 johannesburg.hfengineers.com 0 No Rank 2011-08-18 01:31:16
1893505 onlinedatingtips.commissionmagnets.com 0 21636 2011-08-18 01:31:31
1893506 usnfltv.com 0 1992777 2011-08-18 01:31:44
1893507 noticiasinsolitas.info 0 No Rank 2011-08-18 01:31:54
1893508 whowhere.facebookloot.rickywattsonline.com 0 1622536 2011-08-18 01:31:56
1893509 andresreynol1114.edublogs.org 0 5258 2011-08-18 01:32:11
1893510 mb.facebookloot.rickywattsonline.com 0 1622536 2011-08-18 01:32:12
1893511 takarakuji.facebookloot.rickywattsonline.com 0 1622536 2011-08-18 01:32:35
1893512 bbs.yzs.com 4 920367 2011-08-18 01:33:01
1893513 news.nystatefair.info 0 No Rank 2011-08-18 01:33:39
1893514 price.hfengineers.com 0 No Rank 2011-08-18 01:34:25
1893515 weather.news.hfengineers.com 0 No Rank 2011-08-18 01:35:02
1893516 howmuchisliabilityinsurance.org 0 No Rank 2011-08-18 01:35:24
1893517 santamonicahotelsonthebeach.org 0 No Rank 2011-08-18 01:35:40
1893518 personaltrainersinsurance.org 0 No Rank 2011-08-18 01:35:49
1893519 hotelshelenga.org 0 No Rank 2011-08-18 01:35:50
1893520 treasureislandfloridahotels.org 0 No Rank 2011-08-18 01:36:18
1893521 dryfly.ru 2 8291120 2011-08-18 01:37:17
1893522 iphonevsandroid.es 2 2662553 2011-08-18 01:37:23
1893523 methodconstruction.com 2 No Rank 2011-08-18 01:37:48
1893524 compendiumvet.com 5 No Rank 2011-08-18 01:38:52
1893525 healthylifestyle.freehostia.com 0 7251 2011-08-18 01:38:57
1893526 dayi-archi.myweb.nystatefair.info 0 No Rank 2011-08-18 01:39:05
1893527 thewellnessdynamics.com 2 4171703 2011-08-18 01:39:46
1893528 blinks.net 0 20632944 2011-08-18 01:39:49
1893529 stabilizatoare.com 0 No Rank 2011-08-18 01:42:22
1893530 cyadvocate.com 0 No Rank 2011-09-04 02:49:15
1893531 store1.alinaaasmith.tumblr.com 0 No Rank 2011-08-18 01:43:38
1893532 globalcheminfo.com 3 No Rank 2011-08-18 01:43:47
1893533 johannesburg.noticiasinsolitas.info 0 No Rank 2011-08-18 01:43:58
1893534 tennisclub.hfengineers.com 0 No Rank 2011-08-18 01:44:04
1893535 androidapplicationsandgames.blogspot.com 0 No Rank 2011-08-18 01:44:46
1893536 music.alinaaasmith.tumblr.com 0 No Rank 2011-08-18 01:45:33
1893537 spb.facebookloot.rickywattsonline.com 0 1622536 2011-08-18 01:45:56
1893538 jploudon.com 0 No Rank 2011-08-18 01:46:00
1893539 price.noticiasinsolitas.info 0 No Rank 2011-08-18 01:48:48
1893540 dragonfireworks.hfengineers.com 0 No Rank 2011-08-18 01:49:22
1893541 baito.hfengineers.com 0 No Rank 2011-08-18 01:49:39
1893542 weather.news.noticiasinsolitas.info 0 No Rank 2011-08-18 01:49:50
1893543 piapia788.com 0 No Rank 2011-09-19 12:50:15
1893544 1365car.enews.hfengineers.com 0 No Rank 2011-08-18 01:52:36
1893545 group.hfengineers.com 0 No Rank 2011-08-18 01:53:26
1893546 stardoll.nystatefair.info 0 No Rank 2011-08-18 01:54:13
1893547 old.med.nystatefair.info 0 No Rank 2011-08-18 01:54:36
1893548 hartman-imbriale.com 2 No Rank 2011-08-18 01:54:44
1893549 curing-diabetes.blogspot.com 0 No Rank 2011-08-18 01:57:06
1893550 hotelspensacolafl.org 0 No Rank 2011-08-18 01:57:13
1893551 southpadrehotels.org 0 No Rank 2011-08-18 01:57:27
1893552 seviervilletnhotels.org 0 No Rank 2011-08-18 01:57:35
1893553 chicagoboutiquehotels.net 0 No Rank 2011-08-18 01:57:43
1893554 stpetersburgbeachhotels.org 0 No Rank 2011-08-18 01:57:48
1893555 alliancemtg.com 3 897024 2011-08-18 01:57:55
1893556 birdolutatil.com 1 3264540 2011-08-18 01:58:30
1893557 cashblog.ne1.net 0 383935 2011-08-18 01:59:16
1893558 nhacviet.nystatefair.info 0 No Rank 2011-08-18 01:59:50
1893559 hazelbrandon.gather.com 0 2276 2011-08-18 02:00:00
1893560 wenus.bytom.pl 2 106104 2011-08-18 02:00:41
1893561 3rddatetips.commissionmagnets.com 0 21636 2011-08-18 02:01:26
1893562 bbs.nystatefair.info 0 No Rank 2011-08-18 02:01:49
1893563 max.hfengineers.com 0 No Rank 2011-08-18 02:01:56
1893564 tennisclub.noticiasinsolitas.info 0 No Rank 2011-08-18 02:01:58
1893565 fotomaslankowski.pl 1 No Rank 2011-08-18 02:02:09
1893566 indexed.hfengineers.com 0 No Rank 2011-08-18 02:04:10
1893567 articlebuild.net 0 800306 2011-08-18 02:04:37
1893568 forums.facebookloot.rickywattsonline.com 0 1622536 2011-08-18 02:06:04
1893569 commission-central.hfengineers.com 0 No Rank 2011-08-18 02:06:04
1893570 wiessman.bytom.pl 0 106104 2011-08-18 02:06:04
1893571 nokiafreeapplications.blogspot.com 0 5320864 2011-08-18 02:06:05
1893572 selangzhan.com 0 No Rank 2011-08-18 02:06:18
1893573 pioneertelevisions.info 1 No Rank 2011-08-18 02:06:35
1893574 actor.hfengineers.com 0 No Rank 2011-08-18 02:06:42
1893575 articleadvice.net 0 1328322 2011-08-18 02:07:00
1893576 hazelbrandon.posterous.com 0 No Rank 2011-08-18 02:07:07
1893577 lolfunnygames.com 1 7215586 2011-08-18 02:07:07
1893578 articleadvisor.net 1 436419 2011-08-18 02:07:22
1893579 maps.weston-florida-relocation.com 0 No Rank 2011-08-18 02:07:51
1893580 northroadauto.com 0 No Rank 2011-08-18 02:07:58
1893581 dragonfireworks.noticiasinsolitas.info 0 No Rank 2011-08-18 02:08:50
1893582 abbyes.com 0 No Rank 2011-08-18 02:09:08
1893583 baito.noticiasinsolitas.info 0 No Rank 2011-08-18 02:09:09
1893584 lezameta.com 0 No Rank 2011-08-18 02:09:14
1893585 articleanswer.net 0 1453356 2011-08-18 02:10:07
1893586 wichitaweightlossclinics.com 0 No Rank 2011-08-18 02:11:04
1893587 yesterdaysneuz.com 3 13166724 2011-08-18 02:11:12
1893588 dolnoslaskie.agrofarmer.org.pl 0 3794348 2011-08-18 02:11:31
1893589 homeinsulationphoenix.com 0 No Rank 2011-08-18 02:11:33
1893590 www4.nystatefair.info 0 No Rank 2011-08-18 02:12:10
1893591 blog.hfengineers.com 0 No Rank 2011-08-18 02:12:17
1893592 evergreencommissions.net 0 No Rank 2011-08-18 02:12:29
1893593 group.noticiasinsolitas.info 0 No Rank 2011-08-18 02:14:04
1893594 1365car.enews.noticiasinsolitas.info 0 No Rank 2011-08-18 02:14:14
1893595 autorisks.com 0 No Rank 2011-08-18 02:14:22
1893596 greeninu.com 0 7786696 2011-08-18 02:14:53
1893597 w-facebookloot.rickywattsonline.com 0 1622536 2011-08-18 02:15:00
1893598 afterlapband.net 0 2990022 2011-08-18 02:15:10
1893599 birdoluucak.com 0 29801035 2011-08-18 02:16:10
1893600 ikaplindo.com 0 No Rank 2011-08-18 02:16:44
1893601 tatiletikla.com 0 No Rank 2011-08-18 02:16:49
1893602 embraceaustralia.com 4 318682 2011-08-18 02:17:17
1893603 kujawsko-pomorskie.agrofarmer.org.pl 0 3794348 2011-08-18 02:17:22
1893604 article.nystatefair.info 0 No Rank 2011-08-18 02:17:39
1893605 kazino.ucoz.ru 0 170 2011-08-18 02:18:11
1893606 evergreencommissions.org 0 No Rank 2011-08-18 02:19:28
1893607 readareading.com 0 2258993 2011-08-18 02:20:04
1893608 racknhitch.com 0 6335833 2011-08-18 02:21:25
1893609 wsjr.hfengineers.com 0 No Rank 2011-08-18 02:21:26
1893610 blackbarongroup.com 4 No Rank 2011-08-18 02:21:43
1893611 contactus.hfengineers.com 0 No Rank 2011-08-18 02:22:03
1893612 lubelskie.agrofarmer.org.pl 0 3794348 2011-08-18 02:22:44
1893613 news.facebookloot.rickywattsonline.com 0 1622536 2011-08-18 02:22:46
1893614 baghdadheart.info 0 411481 2011-08-18 02:23:54
1893615 webmail.mkiwasteoil.com 0 No Rank 2011-08-18 02:24:53
1893616 onlineincomewithinfinitydownline.blogspot.com 0 No Rank 2011-08-18 02:25:10
1893617 usachampionshipslive.co.cc 0 No Rank 2011-08-18 02:25:45
1893618 weather.hfengineers.com 0 No Rank 2011-08-18 02:26:23
1893619 dir.hfengineers.com 0 No Rank 2011-08-18 02:27:00
1893620 cxt.nystatefair.info 0 No Rank 2011-08-18 02:27:20
1893621 virtuallity.gr 0 13633520 2011-08-18 02:27:33
1893622 lubuskie.agrofarmer.org.pl 0 3794348 2011-08-18 02:28:11
1893623 mastermylist.com 3 2265913 2011-08-18 02:28:15
1893624 highbloodpressurecontrol.net 0 15238803 2011-08-18 02:28:24
1893625 homepager.tripod.nystatefair.info 0 No Rank 2011-08-18 02:29:02
1893626 indexed.noticiasinsolitas.info 0 No Rank 2011-08-18 02:29:06
1893627 dakkapel-team.nl 0 No Rank 2011-08-18 02:29:44
1893628 theautofinancebusiness.com 0 No Rank 2011-08-18 02:29:50
1893629 maps.wifly.sk 0 19435759 2011-08-18 02:30:08
1893630 maps.youtubenova.cz 0 21669424 2011-08-18 02:30:21
1893631 treville.hfengineers.com 0 No Rank 2011-08-18 02:30:31
1893632 shain.hfengineers.com 0 No Rank 2011-08-18 02:30:57
1893633 zhuangyang4444.com 0 No Rank 2011-08-18 02:31:02
1893634 freedriverforpc.commissionmagnets.com 0 21636 2011-08-18 02:31:19
1893635 pages.hfengineers.com 0 No Rank 2011-08-18 02:31:36
1893636 dayi-archi.myweb.facebookloot.rickywattsonline.com 0 1622536 2011-08-18 02:31:40
1893637 income-timesten.com 0 No Rank 2011-08-18 02:32:20
1893638 lianaflorist.webnode.com 0 3254 2011-08-18 02:32:41
1893639 max.noticiasinsolitas.info 0 No Rank 2011-08-18 02:32:43
1893640 commission-central.noticiasinsolitas.info 0 No Rank 2011-08-18 02:32:59
1893641 actor.noticiasinsolitas.info 0 No Rank 2011-08-18 02:33:35
1893642 lodzkie.agrofarmer.org.pl 0 3794348 2011-08-18 02:33:52
1893643 malcolmservices.com 1 27919812 2011-08-18 02:33:52
1893644 whowhere.hfengineers.com 0 No Rank 2011-08-18 02:33:55
1893645 mb.hfengineers.com 0 No Rank 2011-08-18 02:34:23
1893646 takarakuji.hfengineers.com 0 No Rank 2011-08-18 02:35:09
1893647 zhuangyang3333.com 0 No Rank 2011-08-18 02:35:18
1893648 samgolds.hubpages.com 0 346 2011-08-18 02:36:56
1893649 eyeviveeyecream.bravejournal.com 0 13817 2011-08-18 02:37:40
1893650 retailing.com.au 0 19531605 2011-09-10 00:39:35
1893651 buttersky.org 0 3910146 2011-08-18 02:37:44
1893652 gaymagicdating.co.uk 0 9942287 2011-08-18 02:38:06
1893653 u.mixzinet.com 0 6746501 2011-09-12 16:11:25
1893654 reviewproducts.amazingwebmall.com 0 261053 2011-08-18 02:39:31
1893655 malopolskie.agrofarmer.org.pl 0 3794348 2011-08-18 02:39:36
1893656 zhuangyang2222.com 0 No Rank 2011-08-18 02:39:54
1893657 seoprotools.wordpress.com 0 No Rank 2011-08-18 02:39:56
1893658 crohnsdieseaseulcerativecolitis.blogspot.com 0 No Rank 2011-08-18 02:40:01
1893659 weston-florida-relocation.com 0 No Rank 2011-08-18 02:40:35
1893660 commission-central.weston-florida-relocation.com 0 No Rank 2011-08-18 02:40:36
1893661 sonyreaders.info 0 No Rank 2011-08-18 02:40:36
1893662 advicearticle.net 0 1074653 2011-08-18 02:40:39
1893663 max.weston-florida-relocation.com 0 No Rank 2011-08-18 02:40:40
1893664 whowhere.weston-florida-relocation.com 0 No Rank 2011-08-18 02:40:40
1893665 blog.weston-florida-relocation.com 0 No Rank 2011-08-18 02:40:46
1893666 music.weston-florida-relocation.com 0 No Rank 2011-08-18 02:40:50
1893667 mrvc.enlacegeek.com 0 218316 2011-08-18 02:40:51
1893668 store1.weston-florida-relocation.com 0 No Rank 2011-08-18 02:40:55
1893669 homepager.tripod.weston-florida-relocation.com 0 No Rank 2011-08-18 02:40:59
1893670 electronics-wholesale-distributor.com 0 No Rank 2011-08-18 02:41:19
1893671 maps.enlacegeek.com 0 218316 2011-08-18 02:41:36
1893672 blog.noticiasinsolitas.info 0 No Rank 2011-08-18 02:41:47
1893673 graphicartsandprinting.info 0 No Rank 2011-08-18 02:42:01
1893674 women.enlacegeek.com 0 218316 2011-08-18 02:42:42
1893675 zhuangyang1111.com 0 No Rank 2011-08-18 02:43:29
1893676 genxmag.co.uk 0 999736 2011-08-18 02:43:51
1893677 spb.hfengineers.com 0 No Rank 2011-08-18 02:44:38
1893678 mazowieckie.agrofarmer.org.pl 0 3794348 2011-08-18 02:45:16
1893679 discountmattressesdirect.com 0 No Rank 2011-08-18 02:45:23
1893680 onlyanopinion.com 0 3819806 2011-08-18 02:46:01
1893681 house.nystatefair.info 0 No Rank 2011-08-18 02:46:06
1893682 quitohotelbonanza.com 0 9482620 2011-08-18 02:46:26
1893683 lumpsumprofitsnow.com 0 No Rank 2011-08-18 02:47:51
1893684 seikosrp043k1.com 0 No Rank 2011-08-18 02:48:34
1893685 newerakepsar.se 0 No Rank 2011-08-18 02:49:28
1893686 sex-pornxxx.com 0 No Rank 2011-08-18 02:49:29
1893687 halloween2011blog.com 0 No Rank 2011-08-18 02:49:43
1893688 zone6.com 2 16984307 2011-08-18 02:49:44
1893689 asesoreslegales.org 0 No Rank 2011-08-18 02:49:49
1893690 wow.nystatefair.info 0 No Rank 2011-08-18 02:50:26
1893691 etched.praha-sex-party.cz 0 No Rank 2011-08-18 02:50:37
1893692 yorktowncycles.com 3 5216829 2011-08-18 02:51:03
1893693 opolskie.agrofarmer.org.pl 0 3794348 2011-08-18 02:51:08
1893694 yooz.us 0 No Rank 2011-08-18 02:51:08
1893695 id2.nystatefair.info 0 No Rank 2011-08-18 02:52:52
1893696 wildernesspass.com 2 11287336 2011-08-18 02:53:12
1893697 timepiece.com 2 678396 2011-08-18 02:53:31
1893698 u.enlacegeek.com 0 218316 2011-08-18 02:53:44
1893699 kitchenrenovationsadelaide.net.au 0 No Rank 2011-08-18 02:53:52
1893700 wdcga.org 4 No Rank 2011-08-18 02:54:10
1893701 waldenfoods.com 1 No Rank 2011-09-19 17:16:04
1893702 wsjr.noticiasinsolitas.info 0 No Rank 2011-08-18 02:54:53
1893703 emikisoft.com 0 28461488 2011-08-18 02:55:38
1893704 contactus.noticiasinsolitas.info 0 No Rank 2011-08-18 02:55:48
1893705 vacatureslimburg.nl 5 18217055 2011-08-18 02:56:20
1893706 forums.hfengineers.com 0 No Rank 2011-08-18 02:56:51
1893707 podkarpackie.agrofarmer.org.pl 0 3794348 2011-08-18 02:56:53
1893708 clickjob.ch 5 3405727 2011-08-18 02:57:23
1893709 ultratechnology.com 4 4132986 2011-08-18 02:57:32
1893710 stardoll.facebookloot.rickywattsonline.com 0 1622536 2011-08-18 02:57:49
1893711 turtleriver.com 4 12401396 2011-08-18 02:58:20
1893712 job7.nystatefair.info 0 No Rank 2011-08-18 02:58:30
1893713 wichitahcg.com 1 No Rank 2011-08-18 02:58:57
1893714 old.med.facebookloot.rickywattsonline.com 0 1622536 2011-08-18 02:59:04
1893715 kingdom-principles.org 0 21456397 2011-08-18 03:00:23
1893716 submitarticles101.info 0 1471681 2011-08-18 03:00:35
1893717 howtomakesolarpanels.commissionmagnets.com 0 21636 2011-08-18 03:01:49
1893718 omura.com.br 0 15789221 2011-08-18 03:02:01
1893719 chicagocreditcardprocessing.org 0 No Rank 2011-09-12 12:38:26
1893720 wielkopolskie.agrofarmer.org.pl 0 3794348 2011-08-18 03:02:19
1893721 weather.noticiasinsolitas.info 0 No Rank 2011-08-18 03:02:38
1893722 commissionignition-review.com 0 5445947 2011-08-18 03:02:39
1893723 21stcentury.nystatefair.info 0 No Rank 2011-08-18 03:02:46
1893724 tamsalu.ee 5 8787400 2011-08-18 03:03:04
1893725 faxtoemail.in 0 259761 2011-08-18 03:03:06
1893726 dir.noticiasinsolitas.info 0 No Rank 2011-08-18 03:03:10
1893727 sunrealtyouterbanks.com 0 No Rank 2011-08-18 03:03:55
1893728 facedesign.us 1 4350016 2011-08-18 03:04:04
1893729 amerigopartners.com 0 No Rank 2011-08-18 03:04:08
1893730 money.cameronmckay.com 0 2118576 2011-08-18 03:04:12
1893731 store1.nystatefair.info 0 No Rank 2011-08-18 03:04:56
1893732 cavmen.home.nystatefair.info 0 No Rank 2011-08-18 03:05:32
1893733 spiritspa.de 3 1971557 2011-08-18 03:06:07
1893734 justautoglym.co.uk 0 7237555 2011-09-05 14:35:31
1893735 treville.noticiasinsolitas.info 0 No Rank 2011-08-18 03:07:23
1893736 skibezirk-stuttgart.de 2 No Rank 2011-08-18 03:07:32
1893737 zachodniopomorskie.agrofarmer.org.pl 0 3794348 2011-08-18 03:07:54
1893738 go2.nystatefair.info 0 No Rank 2011-08-18 03:08:10
1893739 buffylinks.com 0 No Rank 2011-08-18 03:08:27
1893740 shain.noticiasinsolitas.info 0 No Rank 2011-08-18 03:08:31
1893741 mywealthjourney.com 1 No Rank 2011-08-18 03:08:38
1893742 home.enlacegeek.com 0 218316 2011-08-18 03:08:50
1893743 googlesmasher-review.com 0 23309452 2011-08-18 03:08:50
1893744 evansville.golocal247.com 3 210814 2011-08-18 03:09:14
1893745 pages.noticiasinsolitas.info 0 No Rank 2011-08-18 03:09:16
1893746 zoomansion.com 1 No Rank 2011-08-18 03:09:16
1893747 news.hfengineers.com 0 No Rank 2011-08-18 03:09:53
1893748 sawtooth.org 4 6731689 2011-08-18 03:09:59
1893749 clavis.lt 3 474859 2011-08-18 03:10:04
1893750 help-to-lose-weight.com 0 20426667 2011-08-18 03:10:04
1893751 www2.enlacegeek.com 0 218316 2011-08-18 03:10:22
1893752 sandyrainwater.com 1 14210477 2011-08-18 03:10:24
1893753 sacredjourney.org 4 15871559 2011-09-19 14:28:51
1893754 androidandroid.blogspot.com 0 No Rank 2011-08-18 03:10:47
1893755 gucinet.eu 2 13179983 2011-08-18 03:11:02
1893756 whowhere.noticiasinsolitas.info 0 No Rank 2011-08-18 03:11:08
1893757 df66.com 1 71049 2011-08-18 03:11:16
1893758 nhacviet.facebookloot.rickywattsonline.com 0 1622536 2011-08-18 03:11:36
1893759 mb.noticiasinsolitas.info 0 No Rank 2011-08-18 03:12:29
1893760 freefile.biz 1 6044950 2011-08-18 03:13:03
1893761 takarakuji.noticiasinsolitas.info 0 No Rank 2011-08-18 03:13:19
1893762 love-calculator.hqvia.com 0 100580 2011-08-18 03:13:21
1893763 wroclawski.2tygodnik.com.pl 0 4611851 2011-08-18 03:13:23
1893764 gdmb.de 5 5124296 2011-08-18 03:13:29
1893765 rafaelsantos.com 1 5492977 2011-08-18 03:13:33
1893766 giolittideli.com 3 20452639 2011-08-18 03:13:38
1893767 gohigheris.com 5 203325 2011-08-18 03:13:56
1893768 hatayozelders.com 0 No Rank 2011-08-18 03:14:00
1893769 tu.nystatefair.info 0 No Rank 2011-08-18 03:15:33
1893770 proxmox.com 4 54013 2011-08-18 03:15:54
1893771 bbs.facebookloot.rickywattsonline.com 0 1622536 2011-08-18 03:15:57
1893772 dayi-archi.myweb.hfengineers.com 0 No Rank 2011-08-18 03:16:10
1893773 prima-bud.pl 2 23825453 2011-08-18 03:16:30
1893774 successaligned.com 1 2506846 2011-08-18 03:17:01
1893775 point.nystatefair.info 0 No Rank 2011-08-18 03:17:12
1893776 bydgoski.2tygodnik.com.pl 0 4611851 2011-08-18 03:18:41
1893777 worldmodel.nl 0 No Rank 2011-08-18 03:18:54
1893778 blog.wiki-answers.eu 0 No Rank 2011-08-18 03:19:12
1893779 21stcentury.wiki-answers.eu 0 No Rank 2011-08-18 03:19:12
1893780 cxt.wiki-answers.eu 0 No Rank 2011-08-18 03:19:12
1893781 wiki-answers.eu.pe 0 No Rank 2011-08-18 03:19:13
1893782 article.wiki-answers.eu 0 No Rank 2011-08-18 03:19:13
1893783 commission-central.wiki-answers.eu 0 No Rank 2011-08-18 03:19:13
1893784 indexed.wiki-answers.eu 0 No Rank 2011-08-18 03:19:14
1893785 1365car.enews.wiki-answers.eu 0 No Rank 2011-08-18 03:19:14
1893786 id2.wiki-answers.eu 0 No Rank 2011-08-18 03:19:14
1893787 dragonfireworks.wiki-answers.eu 0 No Rank 2011-08-18 03:19:14
1893788 max.wiki-answers.eu 0 No Rank 2011-08-18 03:19:14
1893789 forex.wiki-answers.eu 0 No Rank 2011-08-18 03:19:15
1893790 mrvc.wiki-answers.eu 0 No Rank 2011-08-18 03:19:15
1893791 music.wiki-answers.eu 0 No Rank 2011-08-18 03:19:15
1893792 homepager.tripod.wiki-answers.eu 0 No Rank 2011-08-18 03:19:15
1893793 news.wiki-answers.eu 0 No Rank 2011-08-18 03:19:16
1893794 takarakuji.wiki-answers.eu 0 No Rank 2011-08-18 03:19:17
1893795 whowhere.wiki-answers.eu 0 No Rank 2011-08-18 03:19:18
1893796 weather.wiki-answers.eu 0 No Rank 2011-08-18 03:19:19
1893797 toronto.en.wiki-answers.eu 0 No Rank 2011-08-18 03:19:19
1893798 old.med.wiki-answers.eu 0 No Rank 2011-08-18 03:19:19
1893799 www4.wiki-answers.eu 0 No Rank 2011-08-18 03:19:20
1893800 maginstrument.com 2 No Rank 2011-09-18 12:15:43
1893801 bbs.wiki-answers.eu 0 No Rank 2011-08-18 03:19:27
1893802 cavmen.home.wiki-answers.eu 0 No Rank 2011-08-18 03:19:29
1893803 baito.wiki-answers.eu 0 No Rank 2011-08-18 03:19:29
1893804 forums.wiki-answers.eu 0 No Rank 2011-08-18 03:19:30
1893805 alangreene.wiki-answers.eu 0 No Rank 2011-08-18 03:19:30
1893806 dir.wiki-answers.eu 0 No Rank 2011-08-18 03:19:30
1893807 games.wiki-answers.eu 0 No Rank 2011-08-18 03:19:30
1893808 contactus.wiki-answers.eu 0 No Rank 2011-08-18 03:19:30
1893809 house.wiki-answers.eu 0 No Rank 2011-08-18 03:19:30
1893810 go2.wiki-answers.eu 0 No Rank 2011-08-18 03:19:31
1893811 dayi-archi.myweb.wiki-answers.eu 0 No Rank 2011-08-18 03:19:31
1893812 home.wiki-answers.eu 0 No Rank 2011-08-18 03:19:31
1893813 mb.wiki-answers.eu 0 No Rank 2011-08-18 03:19:31
1893814 johannesburg.wiki-answers.eu 0 No Rank 2011-08-18 03:19:31
1893815 actor.wiki-answers.eu 0 No Rank 2011-08-18 03:19:31
1893816 mightylib.wiki-answers.eu 0 No Rank 2011-08-18 03:19:31
1893817 job7.wiki-answers.eu 0 No Rank 2011-08-18 03:19:31
1893818 group.wiki-answers.eu 0 No Rank 2011-08-18 03:19:31
1893819 nhacviet.wiki-answers.eu 0 No Rank 2011-08-18 03:19:31
1893820 pages.wiki-answers.eu 0 No Rank 2011-08-18 03:19:32
1893821 point.wiki-answers.eu 0 No Rank 2011-08-18 03:19:34
1893822 price.wiki-answers.eu 0 No Rank 2011-08-18 03:19:43
1893823 shain.wiki-answers.eu 0 No Rank 2011-08-18 03:19:43
1893824 tennisclub.wiki-answers.eu 0 No Rank 2011-08-18 03:19:43
1893825 spb.wiki-answers.eu 0 No Rank 2011-08-18 03:19:43
1893826 treville.wiki-answers.eu 0 No Rank 2011-08-18 03:19:44
1893827 www2.wiki-answers.eu 0 No Rank 2011-08-18 03:19:44
1893828 u.wiki-answers.eu 0 No Rank 2011-08-18 03:19:44
1893829 stardoll.wiki-answers.eu 0 No Rank 2011-08-18 03:19:44
1893830 tu.wiki-answers.eu 0 No Rank 2011-08-18 03:19:44
1893831 weather.news.wiki-answers.eu 0 No Rank 2011-08-18 03:19:44
1893832 shattered.wiki-answers.eu 0 No Rank 2011-08-18 03:19:44
1893833 store1.wiki-answers.eu 0 No Rank 2011-08-18 03:19:45
1893834 wsjr.wiki-answers.eu 0 No Rank 2011-08-18 03:19:45
1893835 women.wiki-answers.eu 0 No Rank 2011-08-18 03:19:47
1893836 ilgam.sex-escort-czech.cz 0 No Rank 2011-08-18 03:20:39
1893837 oregonzoo.org 6 157028 2011-08-18 03:20:41
1893838 omahaacupuncture.com 0 No Rank 2011-09-12 21:42:24
1893839 moroccorentcar.com 0 22422414 2011-08-18 03:22:23
1893840 shotoku.ac.jp 5 1016308 2011-08-18 03:23:56
1893841 lubelski.2tygodnik.com.pl 0 4611851 2011-08-18 03:24:10
1893842 nebridalmall.com 3 19114911 2011-08-18 03:24:21
1893843 domination-fetish-phone-sex.com 1 14214332 2011-08-18 03:24:54
1893844 nudecelebrityhollywood.blogspot.com 0 No Rank 2011-08-18 03:25:17
1893845 targetjobs.co.uk 7 139042 2011-08-18 03:25:22
1893846 theothersideoforganized.com 2 2617365 2011-08-18 03:25:40
1893847 kansas.chinaadoptionagency.com 1 22391237 2011-08-18 03:26:02
1893848 childrens-hour.com 2 16594876 2011-08-18 03:26:20
1893849 spb.noticiasinsolitas.info 0 No Rank 2011-08-18 03:26:48
1893850 usa-movies.com 0 No Rank 2011-09-12 14:23:12
1893851 vrc.be 3 No Rank 2011-08-18 03:27:20
1893852 westpaterson.com 0 No Rank 2011-08-18 03:27:45
1893853 westons.us 0 No Rank 2011-08-18 03:28:04
1893854 westonlodgeshootingground.co.uk 2 8614420 2011-08-18 03:28:04
1893855 westsidebuzz.com 0 6583249 2011-08-18 03:28:11
1893856 westsiang.nic.in 4 21414778 2011-08-18 03:28:27
1893857 westpointnorthtexas.org 2 12919023 2011-08-18 03:28:30
1893858 westppfcu.com 2 9291547 2011-08-18 03:28:31
1893859 westsee.com 0 No Rank 2011-08-18 03:28:34
1893860 westpharma.com 5 1439993 2011-08-18 03:28:35
1893861 westplainsquill.com 0 15598000 2011-08-18 03:28:39
1893862 westvirginialaw.us 0 No Rank 2011-09-12 11:23:33
1893863 westsong.ca 3 No Rank 2011-08-18 03:28:44
1893864 westudyabroad.com 4 6002346 2011-08-18 03:28:49
1893865 westsiderc.org 5 3341446 2011-08-18 03:28:57
1893866 westsidestudios.co.uk 0 No Rank 2011-09-19 18:49:56
1893867 westwood-home.com 2 No Rank 2011-08-18 03:29:06
1893868 westwoodschool.com 0 No Rank 2011-09-19 18:55:38
1893869 seomaker.info 0 No Rank 2011-08-18 03:29:11
1893870 westwoodcinema.com 0 No Rank 2011-08-18 03:29:20
1893871 westwave.net 2 No Rank 2011-08-18 03:29:26
1893872 westwoodonline.com 0 21623624 2011-08-18 03:29:28
1893873 wetakeaction.com 0 No Rank 2011-09-14 22:43:49
1893874 wet-tech.com 2 No Rank 2011-08-18 03:29:40
1893875 wetdreams.com.au 1 No Rank 2011-08-18 03:29:43
1893876 wet-panty.com 0 14095473 2011-08-18 03:29:45
1893877 wet-vagina-photos.info 0 No Rank 2011-08-18 03:29:47
1893878 wetalkmoney.com 0 No Rank 2011-08-18 03:29:52
1893879 wetclit.com 0 1180453 2011-08-18 03:29:54
1893880 joomlawebsitesunleashed.com 3 5678932 2011-08-18 03:29:58
1893881 wetlabs.com 5 16065855 2011-08-18 03:29:59
1893882 wetgiw.gov.pl 6 1309742 2011-08-18 03:30:01
1893883 wethairycunt.net 0 No Rank 2011-08-18 03:30:02
1893884 189898.com 2 5651139 2011-09-12 17:51:45
1893885 lodzki.2tygodnik.com.pl 0 4611851 2011-08-18 03:30:05
1893886 wethairycunts.com 0 No Rank 2011-08-18 03:30:10
1893887 wethousewife.com 1 No Rank 2011-08-18 03:30:13
1893888 wetorgasmus.com 2 No Rank 2011-08-18 03:30:15
1893889 wethotpussy.net 0 No Rank 2011-08-18 03:30:19
1893890 wetnlivecamgirls.com 0 No Rank 2011-08-18 03:30:19
1893891 weteach2.com 1 No Rank 2011-08-18 03:30:21
1893892 wettinc.ca 5 4397212 2011-08-18 03:30:22
1893893 toronto.en.nystatefair.info 0 No Rank 2011-08-18 03:30:22
1893894 wetrainandconsult.com 3 No Rank 2011-08-18 03:30:25
1893895 wetpussytits.com 0 No Rank 2011-08-18 03:30:28
1893896 wetpussydreams.com 0 4684037 2011-08-18 03:30:34
1893897 wetscape-x.com 0 No Rank 2011-08-18 03:30:35
1893898 salemobile.net 3 798672 2011-08-18 03:30:38
1893899 wetting-panties.easyshag.com 0 275881 2011-08-18 03:30:41
1893900 wettpoint-forum.de 0 20697610 2011-08-18 03:30:42
1893901 wettoonz.com 0 No Rank 2011-08-18 03:30:43
1893902 wetpussyfun.info 0 No Rank 2011-08-18 03:30:47
1893903 wetter.ch 6 129931 2011-08-18 03:30:49
1893904 wewillbuyyourhousefast.com 2 No Rank 2011-08-18 03:30:55
1893905 wetzlar.de 5 1464058 2011-08-18 03:30:56
1893906 wetwetbabes.com 1 11289395 2011-08-18 03:31:02
1893907 mansonmythos.com 3 No Rank 2011-08-18 03:31:13
1893908 weyes.org 0 18035209 2011-08-18 03:31:16
1893909 weyer.com.cn 3 No Rank 2011-08-18 03:31:17
1893910 weve.co.jp 2 9231588 2011-08-18 03:31:17
1893911 wf8.cn 0 No Rank 2011-09-12 21:38:27
1893912 wfad.org 6 12972024 2011-08-18 03:31:23
1893913 wfir960.com 3 4134918 2011-08-18 03:31:28
1893914 wfcms.org 6 3018639 2011-09-11 23:40:57
1893915 enlacegeek.com 0 218316 2011-08-18 03:31:33
1893916 wf-hm.com 2 6861637 2011-08-18 03:31:40
1893917 wfasfm.com 4 3946024 2011-08-18 03:31:42
1893918 wfhs.org.uk 4 25647014 2011-08-18 03:31:44
1893919 wfalliance.org 4 2681096 2011-08-18 03:31:46
1893920 wfbl.com 3 19989277 2011-08-18 03:31:48
1893921 wfafi.org 5 4416320 2011-08-18 03:31:49
1893922 wffa.com 1 8106492 2011-08-18 03:31:50
1893923 wfsky.com 2 222711 2011-09-18 02:16:37
1893924 wfrpc.dst.fl.us 5 No Rank 2011-08-18 03:31:55
1893925 wfmc.edu.cn 6 759353 2011-08-18 03:31:56
1893926 wfo.org 5 6099238 2011-08-18 03:31:59
1893927 wfmn.org 5 20741955 2011-08-18 03:32:00
1893928 commission-central.7b665at3oefb7y8nzjj7yf5g19.hop.clickbank.net 0 649 2011-09-10 21:33:21
1893929 wfso.org 3 24017165 2011-08-18 03:32:11
1893930 wfmls.com 0 8173075 2011-08-18 03:32:15
1893931 wfjobs.com 7 No Rank 2011-08-18 03:32:16
1893932 7b665at3oefb7y8nzjj7yf5g19.hop.clickbank.net 0 649 2011-08-18 03:32:17
1893933 wflr.com 4 No Rank 2011-08-18 03:32:23
1893934 wfoxx.com 4 2764700 2011-08-18 03:32:27
1893935 wfuna.org 7 3675644 2011-08-18 03:32:30
1893936 wg.id.uw.edu.pl 4 23180 2011-08-18 03:32:31
1893937 wfzm.com 2 No Rank 2011-08-18 03:32:38
1893938 wga.com 5 2793711 2011-08-18 03:32:40
1893939 wfwm.org 6 11293883 2011-08-18 03:32:41
1893940 incometimesten-review.com 0 21201032 2011-08-18 03:32:43
1893941 wgbc.org 0 23185013 2011-09-12 23:15:32
1893942 wg-plc.com 3 3039654 2011-08-18 03:32:43
1893943 wfwbc.org 0 No Rank 2011-08-18 03:32:43
1893944 mallonford.com 0 No Rank 2011-09-19 15:55:18
1893945 wgcc.com 0 No Rank 2011-08-18 03:32:46
1893946 lweekly.com 0 24192474 2011-09-19 18:58:31
1893947 wga.com.au 1 No Rank 2011-08-18 03:32:48
1893948 wfwells.com 2 No Rank 2011-08-18 03:32:52
1893949 wg-trikes.de 3 No Rank 2011-08-18 03:32:52
1893950 wfxsfox55.com 0 16630216 2011-09-12 16:38:06
1893951 wfuradio.com 3 12373610 2011-08-18 03:32:54
1893952 wfsz.com 0 No Rank 2011-08-18 03:32:59
1893953 wfxpress.com 0 No Rank 2011-08-18 03:33:00
1893954 wgec.com 3 4025140 2011-09-12 18:34:28
1893955 wgn.info 0 No Rank 2011-08-18 03:33:05
1893956 wgtf.com 3 No Rank 2011-08-18 03:33:07
1893957 stardoll.hfengineers.com 0 No Rank 2011-08-18 03:33:07
1893958 wg365.com.cn 4 4797337 2011-08-18 03:33:19
1893959 locuspublishing.com 5 1755362 2011-08-18 03:33:21
1893960 wgsweb.com 0 No Rank 2011-09-10 07:59:14
1893961 old.med.hfengineers.com 0 No Rank 2011-08-18 03:33:26
1893962 wgr55.com 0 12947046 2011-08-18 03:33:27
1893963 wgdr.org 5 4605107 2011-08-18 03:33:28
1893964 whalerinn.com 1 15678876 2011-08-18 03:33:37
1893965 whale.com.tw 4 8359511 2011-09-19 17:23:01
1893966 whalepenis.org 4 23457593 2011-08-18 03:33:42
1893967 runningshoesbuy.com 0 28866069 2011-08-18 03:33:50
1893968 wh-em.com 3 363704 2011-08-18 03:33:52
1893969 whadi.com 2 No Rank 2011-08-18 03:34:01
1893970 whadshel.com 4 5953321 2011-09-12 16:49:10
1893971 whacamole.com 5 No Rank 2011-08-18 03:34:04
1893972 what.is.the.drug.actos.for.cxe.linux-site.net 0 12003075 2011-08-18 03:34:06
1893973 what-a-world.com 0 No Rank 2011-08-18 03:34:15
1893974 whartonjournal.com 5 3000859 2011-08-18 03:34:16
1893975 wharfedale.com 3 6221805 2011-08-18 03:34:18
1893976 what.is.isosorb.mono.tab.rvvxavulpkdxyhv.co.tv 0 No Rank 2011-08-18 03:34:19
1893977 whataboutarabit.com 0 2655177 2011-08-18 03:34:21
1893978 whataboutarat.com 0 No Rank 2011-08-18 03:34:23
1893979 wharton.isd.tenet.edu 0 226914 2011-08-18 03:34:27
1893980 wharmbyconsultants.co.uk 2 No Rank 2011-09-19 18:11:15
1893981 latribuneauto.com 4 258793 2011-08-18 03:34:38
1893982 whateverlive.com 0 No Rank 2011-08-18 03:34:46
1893983 whatawaytogomovie.com 5 2170983 2011-08-18 03:34:47
1893984 whatcomrealestatemonthly.com 0 No Rank 2011-08-18 03:34:57
1893985 laserinternational.org 5 1761643 2011-08-18 03:35:00
1893986 global-data.co.uk 3 801821 2011-08-18 03:35:04
1893987 whatisthewhiteisland.com 0 No Rank 2011-08-18 03:35:05
1893988 whatistheorangebox.com 6 2835971 2011-08-18 03:35:08
1893989 whatisyourfetish.com 0 4241621 2011-08-18 03:35:08
1893990 whatisblackbook.com 2 16421283 2011-08-18 03:35:13
1893991 whatismyip.com.tw 0 2414758 2011-09-19 16:57:57
1893992 whatilearnd.com 5 2802370 2011-08-18 03:35:16
1893993 whatistwitter.com 2 4406381 2011-08-18 03:35:17
1893994 bhurtel.co.uk 0 25360201 2011-08-18 03:35:20
1893995 whatnet.org 3 2239353 2011-08-18 03:35:28
1893996 whatsthatcode.com 0 No Rank 2011-08-18 03:35:36
1893997 whatmobile.pk 0 2156019 2011-08-18 03:35:41
1893998 whats.nu 6 No Rank 2011-08-18 03:35:44
1893999 poznanski.2tygodnik.com.pl 0 4611851 2011-08-18 03:35:47